Weather History for La Mesa, Honduras

Change the Weather History Date:

Sunday, May 18, 2014

  Actual Average Record
Temperature  
Mean Temperature 80 °F -  
Max Temperature 87 °F 90 °F 100 °F (2011)
Min Temperature 72 °F 74 °F 72 °F (2014)
Cooling Degree Days 14    
Growing Degree Days 30 (Base 50)    
Moisture  
Dew Point 72 °F    
Average Humidity 78    
Maximum Humidity 94    
Minimum Humidity 50    
Precipitation  
Precipitation 0.00 in 0.15 in - ()
Sea Level Pressure  
Sea Level Pressure 29.94 in    
Wind  
Wind Speed 2 mph ()    
Max Wind Speed 12 mph    
Max Gust Speed -    
Visibility 6.4 miles    
Events      
Averages and records for this station are not official NWS values.
T = Trace of Precipitation, MM = Missing Value Source: Averaged Metar Reports

Daily Weather History Graph

Daily Weather History Graph

Search for Another Location

Airport:

Trip Planner

Search our weather history database for the weather conditions in past years. The results will help you decide how hot, cold, wet, or windy it might be!

Date:

Astronomy

May. 18, 2014 Rise Set
Actual Time 5:21 AM CST 6:14 PM CST
Civil Twilight 4:58 AM CST 6:37 PM CST
Nautical Twilight 4:31 AM CST 7:04 PM CST
Astronomical Twilight 4:04 AM CST 7:32 PM CST
Moon 10:13 PM CST (5/18) 9:04 AM CST (5/18)
Length of Visible Light 13h 38m
Length of Day
12h 52m
Waning Gibbous, 80% of the Moon is Illuminated
May 18
Waning Gibbous
May 21
Last Quarter
May 28
New
Jun 5
First Quarter
Jun 12
Full

Hourly Weather History & Observations

Time (CST) Temp. Heat Index Dew Point Humidity Pressure Visibility Wind Dir Wind Speed Gust Speed Precip Events Conditions
12:00 AM 75.2 °F - 71.6 °F 89% 29.98 in 6.2 mi Calm Calm - N/A   Mostly Cloudy
1:00 AM 73.4 °F - 71.6 °F 94% 29.98 in 6.2 mi South 3.5 mph - N/A   Mostly Cloudy
2:00 AM 73.4 °F - 71.6 °F 94% 29.95 in 6.2 mi Calm Calm - N/A   Mostly Cloudy
3:00 AM 73.4 °F - 69.8 °F 88% 29.95 in 6.2 mi Calm Calm - N/A   Mostly Cloudy
4:00 AM 73.4 °F - 69.8 °F 88% 29.95 in 6.2 mi SSW 4.6 mph - N/A   Mostly Cloudy
5:00 AM 73.4 °F - 71.6 °F 94% 29.95 in 6.2 mi Calm Calm - N/A   Mostly Cloudy
6:00 AM 73.4 °F - 71.6 °F 94% 29.95 in 6.2 mi Calm Calm - N/A   Mostly Cloudy
7:00 AM 77.0 °F - 73.4 °F 89% 29.98 in 6.2 mi Calm Calm - N/A   Mostly Cloudy
8:00 AM 77.0 °F - 71.6 °F 83% 29.98 in 6.2 mi Calm Calm - N/A   Mostly Cloudy
9:00 AM 79 °F - 71 °F 70% 29.98 in 6 mi Calm Calm - -   Haze
9:00 AM 78.8 °F - 71.6 °F 78% 29.98 in 6.2 mi Calm Calm - N/A   Mostly Cloudy
10:00 AM 82.4 °F 87.2 °F 71.6 °F 70% 29.95 in 6.2 mi Calm Calm - N/A   Mostly Cloudy
11:00 AM 86.0 °F 90.4 °F 69.8 °F 58% 29.95 in 6.2 mi Calm Calm - N/A   Mostly Cloudy
12:00 PM 87 °F - 71 °F 50% 29.94 in 9 mi Calm Calm - -   Haze
12:00 PM 87.8 °F 93.8 °F 71.6 °F 58% 29.92 in 6.2 mi Calm Calm - N/A   Mostly Cloudy
1:00 PM 86.0 °F 91.8 °F 71.6 °F 62% 29.92 in 6.2 mi ENE 4.6 mph - N/A   Mostly Cloudy
2:00 PM 86.0 °F 93.4 °F 73.4 °F 66% 29.89 in 6.2 mi NE 5.8 mph - N/A   Mostly Cloudy
3:00 PM 87 °F - 72 °F 54% 29.88 in 9 mi NNE 6.9 mph - -   Haze
3:00 PM 87.8 °F 95.6 °F 73.4 °F 62% 29.86 in 6.2 mi NNE 6.9 mph - N/A   Scattered Clouds
4:00 PM 86.0 °F 93.4 °F 73.4 °F 66% 29.86 in 6.2 mi NNE 11.5 mph - N/A   Scattered Clouds
5:00 PM 84.2 °F 90.9 °F 73.4 °F 70% 29.86 in 6.2 mi NNE 11.5 mph - N/A   Partly Cloudy
6:00 PM 81 °F - 72 °F 69% 29.89 in 7 mi NNE 11.5 mph - -   Haze
6:00 PM 80.6 °F 85.4 °F 73.4 °F 79% 29.89 in 6.2 mi NNE 11.5 mph - N/A   Partly Cloudy
7:00 PM 78.8 °F - 73.4 °F 83% 29.92 in 6.2 mi NNE 6.9 mph - N/A   Mostly Cloudy
8:00 PM 78.8 °F - 73.4 °F 83% 29.95 in 6.2 mi NNE 6.9 mph - N/A   Mostly Cloudy
9:00 PM 76 °F - 74 °F 93% 29.96 in 7 mi North 2.3 mph - -   Haze
9:00 PM 77.0 °F - 75.2 °F 94% 29.98 in 6.2 mi North 2.3 mph - N/A   Mostly Cloudy
10:00 PM 77.0 °F - 75.2 °F 94% 29.98 in 6.2 mi North 3.5 mph - N/A   Mostly Cloudy